Time,TemperatureF,DewpointF,PressureIn,WindDirection,WindDirectionDegrees,WindSpeedMPH,WindSpeedGustMPH,Humidity,HourlyPrecipIn,Conditions,Clouds,dailyrainin,SoftwareType,DateUTC
2013-04-12 00:01:00,52.5,40.0,28.45,ESE,112,2.6,7.5,62,0.00,,,0.00,Rainwise IP-100,2013-04-12 05:01:00,
2013-04-12 00:06:00,52.3,39.0,28.45,SSE,157,6.1,6.5,62,0.00,,,0.00,Rainwise IP-100,2013-04-12 05:06:00,
2013-04-12 00:11:00,52.2,40.0,28.45,SSE,157,3.0,6.3,63,0.00,,,0.00,Rainwise IP-100,2013-04-12 05:11:00,
2013-04-12 00:16:00,52.0,40.0,28.45,SSE,157,3.5,8.2,63,0.00,,,0.00,Rainwise IP-100,2013-04-12 05:16:00,
2013-04-12 00:21:00,51.9,40.0,28.45,SSE,157,4.2,7.7,63,0.00,,,0.00,Rainwise IP-100,2013-04-12 05:21:00,
2013-04-12 00:26:00,51.7,40.0,28.45,SSE,157,5.8,6.5,64,0.00,,,0.00,Rainwise IP-100,2013-04-12 05:26:00,
2013-04-12 00:31:00,51.5,40.0,28.45,SSE,157,4.9,6.5,65,0.00,,,0.00,Rainwise IP-100,2013-04-12 05:31:00,
2013-04-12 00:36:00,51.4,40.0,28.45,South,180,2.6,6.3,65,0.00,,,0.00,Rainwise IP-100,2013-04-12 05:36:00,
2013-04-12 00:41:00,51.2,40.0,28.45,SE,135,4.0,5.8,66,0.00,,,0.00,Rainwise IP-100,2013-04-12 05:41:00,
2013-04-12 00:46:00,51.0,40.0,28.45,South,180,4.0,6.8,66,0.00,,,0.00,Rainwise IP-100,2013-04-12 05:46:00,
2013-04-12 00:51:00,50.9,40.0,28.45,SE,135,4.0,4.9,67,0.00,,,0.00,Rainwise IP-100,2013-04-12 05:51:00,
2013-04-12 00:56:00,50.9,41.0,28.45,SSE,157,4.9,6.1,68,0.00,,,0.00,Rainwise IP-100,2013-04-12 05:56:00,
2013-04-12 01:01:00,50.9,41.0,28.45,SSE,157,1.4,7.7,68,0.00,,,0.00,Rainwise IP-100,2013-04-12 06:01:00,
2013-04-12 01:07:00,50.9,41.0,28.45,SSE,157,1.9,5.4,68,0.00,,,0.00,Rainwise IP-100,2013-04-12 06:07:00,
2013-04-12 01:12:00,50.7,41.0,28.45,SSE,157,1.9,4.0,69,0.00,,,0.00,Rainwise IP-100,2013-04-12 06:12:00,
2013-04-12 01:17:00,50.5,41.0,28.45,SSE,157,2.1,4.0,69,0.00,,,0.00,Rainwise IP-100,2013-04-12 06:17:00,
2013-04-12 01:22:00,50.2,40.0,28.45,SSE,157,0.0,3.5,70,0.00,,,0.00,Rainwise IP-100,2013-04-12 06:22:00,
2013-04-12 01:27:00,50.0,41.0,28.45,SSE,157,2.3,2.3,71,0.00,,,0.00,Rainwise IP-100,2013-04-12 06:27:00,
2013-04-12 01:32:00,49.8,41.0,28.45,SSE,157,0.0,3.7,71,0.00,,,0.00,Rainwise IP-100,2013-04-12 06:32:00,
2013-04-12 01:37:00,49.6,41.0,28.45,SSE,157,1.6,3.5,72,0.00,,,0.00,Rainwise IP-100,2013-04-12 06:37:00,
2013-04-12 01:42:00,49.5,41.0,28.45,South,180,1.6,3.7,72,0.00,,,0.00,Rainwise IP-100,2013-04-12 06:42:00,
2013-04-12 01:47:00,49.5,41.0,28.45,SSE,157,4.0,4.0,72,0.00,,,0.00,Rainwise IP-100,2013-04-12 06:47:00,
2013-04-12 01:52:00,49.4,40.0,28.45,SSE,157,2.1,4.0,72,0.00,,,0.00,Rainwise IP-100,2013-04-12 06:52:00,
2013-04-12 01:57:00,49.2,40.0,28.45,South,180,1.2,3.3,72,0.00,,,0.00,Rainwise IP-100,2013-04-12 06:57:00,
2013-04-12 02:02:00,49.1,41.0,28.45,SSE,157,3.7,3.7,73,0.00,,,0.00,Rainwise IP-100,2013-04-12 07:02:00,
2013-04-12 02:07:00,49.2,41.0,28.45,SSE,157,3.0,4.9,73,0.00,,,0.00,Rainwise IP-100,2013-04-12 07:07:00,
2013-04-12 02:12:00,49.2,41.0,28.45,SSE,157,1.9,7.0,73,0.00,,,0.00,Rainwise IP-100,2013-04-12 07:12:00,
2013-04-12 02:17:00,49.3,41.0,28.45,SSE,157,1.4,5.1,73,0.00,,,0.00,Rainwise IP-100,2013-04-12 07:17:00,
2013-04-12 02:22:00,49.3,41.0,28.45,South,180,2.6,4.4,73,0.00,,,0.00,Rainwise IP-100,2013-04-12 07:22:00,
2013-04-12 02:27:00,49.1,41.0,28.45,SSE,157,2.6,4.7,73,0.00,,,0.00,Rainwise IP-100,2013-04-12 07:27:00,
2013-04-12 02:32:00,49.0,41.0,28.44,SSE,157,1.6,3.5,73,0.00,,,0.00,Rainwise IP-100,2013-04-12 07:32:00,
2013-04-12 02:37:00,48.9,41.0,28.45,SSE,157,1.4,3.5,74,0.00,,,0.00,Rainwise IP-100,2013-04-12 07:37:00,
2013-04-12 02:42:00,48.8,41.0,28.45,SSE,157,0.0,2.6,74,0.00,,,0.00,Rainwise IP-100,2013-04-12 07:42:00,
2013-04-12 02:47:00,48.8,41.0,28.44,SSW,202,0.0,1.6,74,0.00,,,0.00,Rainwise IP-100,2013-04-12 07:47:00,
2013-04-12 02:52:00,48.7,41.0,28.44,SSW,202,0.0,1.9,74,0.00,,,0.00,Rainwise IP-100,2013-04-12 07:52:00,
2013-04-12 02:57:00,48.6,41.0,28.45,SSE,157,2.1,3.5,74,0.00,,,0.00,Rainwise IP-100,2013-04-12 07:57:00,
2013-04-12 03:02:00,48.5,41.0,28.44,SSE,157,2.1,3.5,74,0.00,,,0.00,Rainwise IP-100,2013-04-12 08:02:00,
2013-04-12 03:07:00,48.7,41.0,28.44,SSE,157,3.3,4.0,74,0.00,,,0.00,Rainwise IP-100,2013-04-12 08:07:00,
2013-04-12 03:12:00,48.9,41.0,28.45,SSW,202,3.7,4.4,73,0.00,,,0.00,Rainwise IP-100,2013-04-12 08:12:00,
2013-04-12 03:17:00,49.0,41.0,28.44,SSE,157,1.6,4.4,73,0.00,,,0.00,Rainwise IP-100,2013-04-12 08:17:00,
2013-04-12 03:22:00,48.9,41.0,28.44,SSW,202,1.4,3.5,73,0.00,,,0.00,Rainwise IP-100,2013-04-12 08:22:00,
2013-04-12 03:27:00,48.8,41.0,28.44,SSE,157,4.4,4.9,73,0.00,,,0.00,Rainwise IP-100,2013-04-12 08:27:00,
2013-04-12 03:32:00,48.9,41.0,28.44,SSE,157,3.5,5.6,73,0.00,,,0.00,Rainwise IP-100,2013-04-12 08:32:00,
2013-04-12 03:37:00,49.2,40.0,28.44,SSE,157,2.6,6.3,72,0.00,,,0.00,Rainwise IP-100,2013-04-12 08:37:00,
2013-04-12 03:42:00,49.3,40.0,28.44,South,180,3.5,4.0,72,0.00,,,0.00,Rainwise IP-100,2013-04-12 08:42:00,
2013-04-12 03:47:00,49.2,40.0,28.44,South,180,1.2,5.4,72,0.00,,,0.00,Rainwise IP-100,2013-04-12 08:47:00,
2013-04-12 03:52:00,49.0,40.0,28.45,South,180,1.2,3.3,72,0.00,,,0.00,Rainwise IP-100,2013-04-12 08:52:00,
2013-04-12 03:57:00,48.8,40.0,28.44,South,180,0.0,2.1,72,0.00,,,0.00,Rainwise IP-100,2013-04-12 08:57:00,
2013-04-12 04:02:00,48.6,41.0,28.44,South,180,2.1,2.1,73,0.00,,,0.00,Rainwise IP-100,2013-04-12 09:02:00,
2013-04-12 04:07:00,48.4,40.0,28.44,SSE,157,1.4,3.3,73,0.00,,,0.00,Rainwise IP-100,2013-04-12 09:07:00,
2013-04-12 04:12:00,48.4,40.0,28.45,South,180,2.1,2.8,74,0.00,,,0.00,Rainwise IP-100,2013-04-12 09:12:00,
2013-04-12 04:17:00,48.4,40.0,28.45,SSE,157,2.1,2.8,74,0.00,,,0.00,Rainwise IP-100,2013-04-12 09:17:00,
2013-04-12 04:22:00,48.3,40.0,28.45,South,180,2.1,3.7,74,0.00,,,0.00,Rainwise IP-100,2013-04-12 09:22:00,
2013-04-12 04:27:00,48.1,40.0,28.44,SSE,157,0.0,3.5,74,0.00,,,0.00,Rainwise IP-100,2013-04-12 09:27:00,
2013-04-12 04:32:00,47.9,41.0,28.45,SSE,157,0.0,2.8,75,0.00,,,0.00,Rainwise IP-100,2013-04-12 09:32:00,
2013-04-12 04:37:00,47.6,40.0,28.44,SSE,157,1.6,4.4,75,0.00,,,0.00,Rainwise IP-100,2013-04-12 09:37:00,
2013-04-12 04:42:00,47.3,40.0,28.44,SSE,157,2.6,3.7,75,0.00,,,0.00,Rainwise IP-100,2013-04-12 09:42:00,
2013-04-12 04:47:00,47.3,40.0,28.44,SSE,157,0.0,3.5,76,0.00,,,0.00,Rainwise IP-100,2013-04-12 09:47:00,
2013-04-12 04:52:00,47.3,40.0,28.44,SSE,157,1.4,2.1,76,0.00,,,0.00,Rainwise IP-100,2013-04-12 09:52:00,
2013-04-12 04:57:00,47.1,40.0,28.44,SSE,157,0.0,1.9,77,0.00,,,0.00,Rainwise IP-100,2013-04-12 09:57:00,
2013-04-12 05:02:00,46.8,40.0,28.44,SSE,157,1.6,1.9,77,0.00,,,0.00,Rainwise IP-100,2013-04-12 10:02:00,
2013-04-12 05:07:00,46.6,40.0,28.44,SSE,157,1.4,2.6,78,0.00,,,0.00,Rainwise IP-100,2013-04-12 10:07:00,
2013-04-12 05:12:00,46.5,40.0,28.45,SSE,157,1.4,2.1,78,0.00,,,0.00,Rainwise IP-100,2013-04-12 10:12:00,
2013-04-12 05:17:00,46.4,39.0,28.44,SSE,157,0.0,1.4,78,0.00,,,0.00,Rainwise IP-100,2013-04-12 10:17:00,
2013-04-12 05:22:00,46.6,40.0,28.45,ESE,112,1.2,1.2,79,0.00,,,0.00,Rainwise IP-100,2013-04-12 10:22:00,
2013-04-12 05:27:00,47.0,40.0,28.45,NE,45,2.6,3.7,79,0.00,,,0.00,Rainwise IP-100,2013-04-12 10:27:00,
2013-04-12 05:32:00,47.0,40.0,28.46,NE,45,0.0,3.0,79,0.00,,,0.00,Rainwise IP-100,2013-04-12 10:32:00,
2013-04-12 05:37:00,46.5,40.0,28.45,NE,45,0.0,0.0,79,0.00,,,0.00,Rainwise IP-100,2013-04-12 10:37:00,
2013-04-12 05:42:00,46.0,40.0,28.46,NE,45,0.0,2.1,80,0.00,,,0.00,Rainwise IP-100,2013-04-12 10:42:00,
2013-04-12 05:47:00,45.4,39.0,28.46,NE,45,1.4,2.3,80,0.00,,,0.00,Rainwise IP-100,2013-04-12 10:47:00,
2013-04-12 05:52:00,45.2,39.0,28.46,NE,45,0.0,2.1,81,0.00,,,0.00,Rainwise IP-100,2013-04-12 10:52:00,
2013-04-12 05:57:00,44.7,40.0,28.46,NE,45,0.0,0.0,82,0.00,,,0.00,Rainwise IP-100,2013-04-12 10:57:00,
2013-04-12 06:02:00,44.1,39.0,28.46,NE,45,0.0,0.0,84,0.00,,,0.00,Rainwise IP-100,2013-04-12 11:02:00,
2013-04-12 06:07:00,43.8,40.0,28.46,NE,45,0.0,0.0,85,0.00,,,0.00,Rainwise IP-100,2013-04-12 11:07:00,
2013-04-12 06:12:00,43.5,40.0,28.47,NE,45,0.0,0.0,86,0.00,,,0.00,Rainwise IP-100,2013-04-12 11:12:00,
2013-04-12 06:17:00,43.1,39.0,28.47,NE,45,0.0,0.0,87,0.00,,,0.00,Rainwise IP-100,2013-04-12 11:17:00,
2013-04-12 06:22:00,42.9,39.0,28.47,NE,45,0.0,1.4,87,0.00,,,0.00,Rainwise IP-100,2013-04-12 11:22:00,
2013-04-12 06:27:00,42.8,40.0,28.47,NE,45,0.0,1.2,88,0.00,,,0.00,Rainwise IP-100,2013-04-12 11:27:00,
2013-04-12 06:32:00,42.4,39.0,28.48,NE,45,0.0,1.4,88,0.00,,,0.00,Rainwise IP-100,2013-04-12 11:32:00,
2013-04-12 06:37:00,42.1,39.0,28.47,NE,45,0.0,0.0,88,0.00,,,0.00,Rainwise IP-100,2013-04-12 11:37:00,
2013-04-12 06:42:00,41.9,39.0,28.48,NE,45,1.4,1.4,89,0.00,,,0.00,Rainwise IP-100,2013-04-12 11:42:00,
2013-04-12 06:47:00,41.9,39.0,28.48,NE,45,0.0,1.6,90,0.00,,,0.00,Rainwise IP-100,2013-04-12 11:47:00,
2013-04-12 06:52:00,41.7,40.0,28.48,NE,45,0.0,0.0,91,0.00,,,0.00,Rainwise IP-100,2013-04-12 11:52:00,
2013-04-12 06:57:00,41.6,40.0,28.48,NE,45,0.0,0.0,91,0.00,,,0.00,Rainwise IP-100,2013-04-12 11:57:00,
2013-04-12 07:02:00,41.9,40.0,28.48,NE,45,1.2,1.9,91,0.00,,,0.00,Rainwise IP-100,2013-04-12 12:02:00,
2013-04-12 07:07:00,42.1,40.0,28.48,NE,45,0.0,2.1,91,0.00,,,0.00,Rainwise IP-100,2013-04-12 12:07:00,
2013-04-12 07:12:00,42.1,40.0,28.49,NE,45,0.0,0.0,91,0.00,,,0.00,Rainwise IP-100,2013-04-12 12:12:00,
2013-04-12 07:17:00,41.8,40.0,28.49,NE,45,0.0,0.0,91,0.00,,,0.00,Rainwise IP-100,2013-04-12 12:17:00,
2013-04-12 07:22:00,41.7,40.0,28.49,NE,45,0.0,1.6,91,0.00,,,0.00,Rainwise IP-100,2013-04-12 12:22:00,
2013-04-12 07:27:00,41.7,40.0,28.50,NE,45,0.0,0.0,91,0.00,,,0.00,Rainwise IP-100,2013-04-12 12:27:00,
2013-04-12 07:32:00,42.0,40.0,28.50,NE,45,0.0,2.3,92,0.00,,,0.00,Rainwise IP-100,2013-04-12 12:32:00,
2013-04-12 07:37:00,43.2,41.0,28.50,NE,45,0.0,2.8,92,0.00,,,0.00,Rainwise IP-100,2013-04-12 12:37:00,
2013-04-12 07:42:00,44.6,42.0,28.50,NE,45,2.1,2.3,91,0.00,,,0.00,Rainwise IP-100,2013-04-12 12:42:00,
2013-04-12 07:47:00,45.8,43.0,28.50,NE,45,1.4,3.0,89,0.00,,,0.00,Rainwise IP-100,2013-04-12 12:47:00,
2013-04-12 07:52:00,46.7,43.0,28.50,NE,45,1.2,4.0,87,0.00,,,0.00,Rainwise IP-100,2013-04-12 12:52:00,
2013-04-12 07:57:00,47.3,43.0,28.50,NE,45,2.8,3.7,85,0.00,,,0.00,Rainwise IP-100,2013-04-12 12:57:00,
2013-04-12 08:02:00,48.0,43.0,28.50,NE,45,1.4,4.4,83,0.00,,,0.00,Rainwise IP-100,2013-04-12 13:02:00,
2013-04-12 08:07:00,48.6,44.0,28.51,NE,45,0.0,4.4,82,0.00,,,0.00,Rainwise IP-100,2013-04-12 13:07:00,
2013-04-12 08:12:00,49.3,43.0,28.51,NE,45,2.1,2.8,80,0.00,,,0.00,Rainwise IP-100,2013-04-12 13:12:00,
2013-04-12 08:17:00,49.8,43.0,28.51,NE,45,2.6,5.8,79,0.00,,,0.00,Rainwise IP-100,2013-04-12 13:17:00,
2013-04-12 08:22:00,50.3,44.0,28.51,ENE,67,1.9,4.4,78,0.00,,,0.00,Rainwise IP-100,2013-04-12 13:22:00,
2013-04-12 08:27:00,51.2,44.0,28.52,ENE,67,4.2,4.2,76,0.00,,,0.00,Rainwise IP-100,2013-04-12 13:27:00,
2013-04-12 08:32:00,51.8,44.0,28.51,NE,45,1.4,5.4,74,0.00,,,0.00,Rainwise IP-100,2013-04-12 13:32:00,
2013-04-12 08:37:00,52.5,44.0,28.51,ENE,67,0.0,3.7,72,0.00,,,0.00,Rainwise IP-100,2013-04-12 13:37:00,
2013-04-12 08:42:00,53.1,43.0,28.52,ESE,112,1.9,3.7,71,0.00,,,0.00,Rainwise IP-100,2013-04-12 13:42:00,
2013-04-12 08:47:00,53.8,44.0,28.52,SE,135,1.6,3.3,69,0.00,,,0.00,Rainwise IP-100,2013-04-12 13:47:00,
2013-04-12 08:52:00,54.3,44.0,28.52,East,90,1.6,5.8,68,0.00,,,0.00,Rainwise IP-100,2013-04-12 13:52:00,
2013-04-12 08:57:00,54.3,44.0,28.52,ESE,112,4.7,4.7,67,0.00,,,0.00,Rainwise IP-100,2013-04-12 13:57:00,
2013-04-12 09:02:00,54.4,43.0,28.53,SE,135,3.7,4.7,66,0.00,,,0.00,Rainwise IP-100,2013-04-12 14:02:00,
2013-04-12 09:07:00,55.0,44.0,28.52,ESE,112,3.7,4.2,66,0.00,,,0.00,Rainwise IP-100,2013-04-12 14:07:00,
2013-04-12 09:12:00,55.4,43.0,28.53,SSE,157,4.9,5.4,64,0.00,,,0.00,Rainwise IP-100,2013-04-12 14:12:00,
2013-04-12 09:17:00,55.9,43.0,28.53,ESE,112,0.0,6.3,63,0.00,,,0.00,Rainwise IP-100,2013-04-12 14:17:00,
2013-04-12 09:22:00,56.6,43.0,28.53,SSE,157,3.0,5.8,61,0.00,,,0.00,Rainwise IP-100,2013-04-12 14:22:00,
2013-04-12 09:27:00,57.0,43.0,28.53,SSW,202,4.7,5.4,60,0.00,,,0.00,Rainwise IP-100,2013-04-12 14:27:00,
2013-04-12 09:32:00,57.5,43.0,28.53,SE,135,4.9,6.5,59,0.00,,,0.00,Rainwise IP-100,2013-04-12 14:32:00,
2013-04-12 09:37:00,57.8,43.0,28.53,SSE,157,3.5,6.5,57,0.00,,,0.00,Rainwise IP-100,2013-04-12 14:37:00,
2013-04-12 09:42:00,58.3,43.0,28.54,SSE,157,3.3,6.8,57,0.00,,,0.00,Rainwise IP-100,2013-04-12 14:42:00,
2013-04-12 09:47:00,58.8,43.0,28.53,SE,135,4.9,7.7,56,0.00,,,0.00,Rainwise IP-100,2013-04-12 14:47:00,
2013-04-12 09:52:00,59.0,43.0,28.54,SSE,157,4.7,7.5,56,0.00,,,0.00,Rainwise IP-100,2013-04-12 14:52:00,
2013-04-12 09:57:00,59.4,43.0,28.53,South,180,3.7,7.2,55,0.00,,,0.00,Rainwise IP-100,2013-04-12 14:57:00,
2013-04-12 10:02:00,59.7,42.0,28.54,SE,135,6.1,10.7,53,0.00,,,0.00,Rainwise IP-100,2013-04-12 15:02:00,
2013-04-12 10:07:00,59.9,43.0,28.54,SSE,157,5.6,8.6,53,0.00,,,0.00,Rainwise IP-100,2013-04-12 15:07:00,
2013-04-12 10:12:00,60.0,43.0,28.54,South,180,6.1,10.3,53,0.00,,,0.00,Rainwise IP-100,2013-04-12 15:12:00,
2013-04-12 10:17:00,59.9,43.0,28.54,SSE,157,3.5,9.3,53,0.00,,,0.00,Rainwise IP-100,2013-04-12 15:17:00,
2013-04-12 10:22:00,60.2,43.0,28.54,SSE,157,5.8,6.8,53,0.00,,,0.00,Rainwise IP-100,2013-04-12 15:22:00,
2013-04-12 10:27:00,60.7,43.0,28.54,SW,225,5.4,8.2,53,0.00,,,0.00,Rainwise IP-100,2013-04-12 15:27:00,
2013-04-12 10:32:00,61.2,44.0,28.54,SSE,157,5.1,6.5,53,0.00,,,0.00,Rainwise IP-100,2013-04-12 15:32:00,
2013-04-12 10:37:00,61.7,44.0,28.54,SSE,157,4.2,9.1,53,0.00,,,0.00,Rainwise IP-100,2013-04-12 15:37:00,
2013-04-12 10:42:00,62.2,44.0,28.55,SSE,157,4.2,9.3,52,0.00,,,0.00,Rainwise IP-100,2013-04-12 15:42:00,
2013-04-12 10:47:00,62.8,44.0,28.54,SSE,157,4.7,10.0,50,0.00,,,0.00,Rainwise IP-100,2013-04-12 15:47:00,
2013-04-12 10:52:00,63.4,44.0,28.54,SW,225,2.6,10.0,49,0.00,,,0.00,Rainwise IP-100,2013-04-12 15:52:00,
2013-04-12 10:57:00,63.9,44.0,28.54,South,180,6.5,9.1,48,0.00,,,0.00,Rainwise IP-100,2013-04-12 15:57:00,
2013-04-12 11:02:00,64.1,44.0,28.54,SE,135,6.1,9.8,48,0.00,,,0.00,Rainwise IP-100,2013-04-12 16:02:00,
2013-04-12 11:07:00,64.3,44.0,28.54,SSW,202,8.2,10.5,47,0.00,,,0.00,Rainwise IP-100,2013-04-12 16:07:00,
2013-04-12 11:12:00,64.7,44.0,28.54,South,180,4.2,9.3,47,0.00,,,0.00,Rainwise IP-100,2013-04-12 16:12:00,
2013-04-12 11:17:00,64.9,44.0,28.54,SSE,157,8.9,14.7,47,0.00,,,0.00,Rainwise IP-100,2013-04-12 16:17:00,
2013-04-12 11:22:00,65.0,44.0,28.54,South,180,6.3,11.4,46,0.00,,,0.00,Rainwise IP-100,2013-04-12 16:22:00,
2013-04-12 11:27:00,65.3,44.0,28.54,SSW,202,4.0,12.6,46,0.00,,,0.00,Rainwise IP-100,2013-04-12 16:27:00,
2013-04-12 11:32:00,65.9,44.0,28.54,South,180,4.0,8.9,46,0.00,,,0.00,Rainwise IP-100,2013-04-12 16:32:00,
2013-04-12 11:37:00,66.2,44.0,28.53,SW,225,4.4,10.0,45,0.00,,,0.00,Rainwise IP-100,2013-04-12 16:37:00,
2013-04-12 11:42:00,66.5,45.0,28.54,South,180,2.6,11.7,45,0.00,,,0.00,Rainwise IP-100,2013-04-12 16:42:00,
2013-04-12 11:47:00,66.9,45.0,28.54,SSW,202,3.5,9.8,45,0.00,,,0.00,Rainwise IP-100,2013-04-12 16:47:00,
2013-04-12 11:52:00,67.2,44.0,28.53,SSE,157,4.4,12.6,44,0.00,,,0.00,Rainwise IP-100,2013-04-12 16:52:00,
2013-04-12 11:57:00,67.3,45.0,28.54,SSW,202,4.9,9.1,44,0.00,,,0.00,Rainwise IP-100,2013-04-12 16:57:00,
2013-04-12 12:02:00,67.6,45.0,28.53,ESE,112,5.1,11.0,44,0.00,,,0.00,Rainwise IP-100,2013-04-12 17:02:00,
2013-04-12 12:07:00,68.2,45.0,28.53,South,180,3.5,10.5,43,0.00,,,0.00,Rainwise IP-100,2013-04-12 17:07:00,
2013-04-12 12:12:00,68.7,45.0,28.53,South,180,5.8,7.7,43,0.00,,,0.00,Rainwise IP-100,2013-04-12 17:12:00,
2013-04-12 12:17:00,69.1,45.0,28.53,SSW,202,3.5,7.7,42,0.00,,,0.00,Rainwise IP-100,2013-04-12 17:17:00,
2013-04-12 12:22:00,69.5,46.0,28.53,SSW,202,4.2,7.9,42,0.00,,,0.00,Rainwise IP-100,2013-04-12 17:22:00,
2013-04-12 12:27:00,69.7,45.0,28.52,ESE,112,5.8,11.7,41,0.00,,,0.00,Rainwise IP-100,2013-04-12 17:27:00,
2013-04-12 12:33:00,70.0,45.0,28.52,ESE,112,7.0,8.9,40,0.00,,,0.00,Rainwise IP-100,2013-04-12 17:33:00,
2013-04-12 12:38:00,70.2,45.0,28.52,ENE,67,5.4,11.2,40,0.00,,,0.00,Rainwise IP-100,2013-04-12 17:38:00,
2013-04-12 12:43:00,70.7,45.0,28.51,SSW,202,5.4,9.3,40,0.00,,,0.00,Rainwise IP-100,2013-04-12 17:43:00,
2013-04-12 12:48:00,71.1,45.0,28.51,SSW,202,5.1,10.3,39,0.00,,,0.00,Rainwise IP-100,2013-04-12 17:48:00,
2013-04-12 12:53:00,71.4,44.0,28.51,ESE,112,5.6,10.3,38,0.00,,,0.00,Rainwise IP-100,2013-04-12 17:53:00,
2013-04-12 12:58:00,71.6,45.0,28.51,ESE,112,0.0,8.9,38,0.00,,,0.00,Rainwise IP-100,2013-04-12 17:58:00,
2013-04-12 13:03:00,72.0,44.0,28.51,SSE,157,5.8,8.2,37,0.00,,,0.00,Rainwise IP-100,2013-04-12 18:03:00,
2013-04-12 13:08:00,72.5,45.0,28.50,SSW,202,4.7,9.8,37,0.00,,,0.00,Rainwise IP-100,2013-04-12 18:08:00,
2013-04-12 13:13:00,72.5,44.0,28.50,SW,225,4.9,10.0,36,0.00,,,0.00,Rainwise IP-100,2013-04-12 18:13:00,
2013-04-12 13:18:00,72.6,44.0,28.49,SE,135,2.3,12.4,36,0.00,,,0.00,Rainwise IP-100,2013-04-12 18:18:00,
2013-04-12 13:23:00,72.9,44.0,28.49,South,180,4.9,12.6,35,0.00,,,0.00,Rainwise IP-100,2013-04-12 18:23:00,
2013-04-12 13:28:00,73.2,44.0,28.49,SSE,157,7.2,11.7,35,0.00,,,0.00,Rainwise IP-100,2013-04-12 18:28:00,
2013-04-12 14:26:00,75.3,43.0,28.47,SSE,157,8.4,13.3,32,0.00,,,0.00,Rainwise IP-100,2013-04-12 19:26:00,
2013-04-12 14:31:00,75.2,42.0,28.46,SSE,157,7.5,10.3,31,0.00,,,0.00,Rainwise IP-100,2013-04-12 19:31:00,
2013-04-12 14:36:00,75.2,42.0,28.46,SSE,157,4.0,15.9,31,0.00,,,0.00,Rainwise IP-100,2013-04-12 19:36:00,
2013-04-12 14:41:00,75.3,43.0,28.46,East,90,9.1,15.9,31,0.00,,,0.00,Rainwise IP-100,2013-04-12 19:41:00,
2013-04-12 14:46:00,75.4,43.0,28.46,SSW,202,7.5,15.9,31,0.00,,,0.00,Rainwise IP-100,2013-04-12 19:46:00,
2013-04-12 14:51:00,75.6,43.0,28.46,SE,135,7.5,14.2,31,0.00,,,0.00,Rainwise IP-100,2013-04-12 19:51:00,
2013-04-12 14:56:00,75.7,43.0,28.46,East,90,11.4,15.2,31,0.00,,,0.00,Rainwise IP-100,2013-04-12 19:56:00,
2013-04-12 15:01:00,75.8,43.0,28.45,ESE,112,11.0,11.4,31,0.00,,,0.00,Rainwise IP-100,2013-04-12 20:01:00,
2013-04-12 15:06:00,76.2,43.0,28.46,SE,135,4.9,13.5,31,0.00,,,0.00,Rainwise IP-100,2013-04-12 20:06:00,
2013-04-12 15:11:00,76.4,43.0,28.45,South,180,10.0,11.2,30,0.00,,,0.00,Rainwise IP-100,2013-04-12 20:11:00,
2013-04-12 15:16:00,76.4,43.0,28.45,SSE,157,4.9,15.6,30,0.00,,,0.00,Rainwise IP-100,2013-04-12 20:16:00,
2013-04-12 15:21:00,76.3,42.0,28.45,ESE,112,4.9,12.4,30,0.00,,,0.00,Rainwise IP-100,2013-04-12 20:21:00,
2013-04-12 15:26:00,76.7,43.0,28.44,SE,135,4.0,10.5,30,0.00,,,0.00,Rainwise IP-100,2013-04-12 20:26:00,
2013-04-12 15:31:00,76.9,43.0,28.44,SSE,157,6.3,16.3,30,0.00,,,0.00,Rainwise IP-100,2013-04-12 20:31:00,
2013-04-12 15:36:00,76.8,43.0,28.44,South,180,6.8,14.9,30,0.00,,,0.00,Rainwise IP-100,2013-04-12 20:36:00,
2013-04-12 15:41:00,76.9,43.0,28.43,ESE,112,9.8,16.1,30,0.00,,,0.00,Rainwise IP-100,2013-04-12 20:41:00,
2013-04-12 15:46:00,77.0,43.0,28.43,SE,135,8.2,14.7,30,0.00,,,0.00,Rainwise IP-100,2013-04-12 20:46:00,
2013-04-12 15:51:00,77.1,43.0,28.42,SSE,157,7.7,12.4,30,0.00,,,0.00,Rainwise IP-100,2013-04-12 20:51:00,
2013-04-12 15:56:00,77.3,44.0,28.42,SSE,157,5.8,12.1,30,0.00,,,0.00,Rainwise IP-100,2013-04-12 20:56:00,
2013-04-12 16:01:00,77.5,44.0,28.42,SSE,157,6.5,13.8,30,0.00,,,0.00,Rainwise IP-100,2013-04-12 21:01:00,
2013-04-12 16:06:00,77.4,44.0,28.42,SE,135,5.6,12.4,31,0.00,,,0.00,Rainwise IP-100,2013-04-12 21:06:00,
2013-04-12 16:11:00,77.5,45.0,28.42,South,180,8.2,11.7,31,0.00,,,0.00,Rainwise IP-100,2013-04-12 21:11:00,
2013-04-12 16:16:00,77.6,44.0,28.41,South,180,6.8,16.6,30,0.00,,,0.00,Rainwise IP-100,2013-04-12 21:16:00,
2013-04-12 16:21:00,77.8,44.0,28.41,SSW,202,10.0,13.5,30,0.00,,,0.00,Rainwise IP-100,2013-04-12 21:21:00,
2013-04-12 16:26:00,78.0,44.0,28.41,SE,135,7.7,12.1,30,0.00,,,0.00,Rainwise IP-100,2013-04-12 21:26:00,
2013-04-12 16:31:00,78.0,44.0,28.41,ESE,112,6.5,13.3,30,0.00,,,0.00,Rainwise IP-100,2013-04-12 21:31:00,
2013-04-12 16:36:00,78.2,43.0,28.40,SSE,157,9.1,14.0,29,0.00,,,0.00,Rainwise IP-100,2013-04-12 21:36:00,
2013-04-12 16:41:00,78.2,43.0,28.40,SSW,202,4.4,13.3,29,0.00,,,0.00,Rainwise IP-100,2013-04-12 21:41:00,
2013-04-12 16:46:00,78.2,43.0,28.40,SE,135,7.2,10.7,29,0.00,,,0.00,Rainwise IP-100,2013-04-12 21:46:00,
2013-04-12 16:51:00,78.0,43.0,28.40,ESE,112,3.7,13.3,29,0.00,,,0.00,Rainwise IP-100,2013-04-12 21:51:00,
2013-04-12 16:56:00,78.0,44.0,28.40,ESE,112,7.2,13.3,30,0.00,,,0.00,Rainwise IP-100,2013-04-12 21:56:00,
2013-04-12 17:01:00,78.0,44.0,28.40,ESE,112,8.4,11.0,30,0.00,,,0.00,Rainwise IP-100,2013-04-12 22:01:00,
2013-04-12 17:06:00,77.9,44.0,28.40,SSE,157,8.9,10.3,30,0.00,,,0.00,Rainwise IP-100,2013-04-12 22:06:00,
2013-04-12 17:11:00,78.0,44.0,28.39,ENE,67,6.8,12.6,30,0.00,,,0.00,Rainwise IP-100,2013-04-12 22:11:00,
2013-04-12 17:16:00,78.0,45.0,28.40,ESE,112,8.9,14.7,31,0.00,,,0.00,Rainwise IP-100,2013-04-12 22:16:00,
2013-04-12 17:21:00,78.2,44.0,28.39,SE,135,5.6,11.4,30,0.00,,,0.00,Rainwise IP-100,2013-04-12 22:21:00,
2013-04-12 17:26:00,78.2,44.0,28.39,South,180,6.8,12.6,30,0.00,,,0.00,Rainwise IP-100,2013-04-12 22:26:00,
2013-04-12 17:31:00,78.2,44.0,28.39,South,180,7.2,13.5,30,0.00,,,0.00,Rainwise IP-100,2013-04-12 22:31:00,
2013-04-12 17:36:00,78.2,44.0,28.39,SE,135,4.2,11.4,30,0.00,,,0.00,Rainwise IP-100,2013-04-12 22:36:00,
2013-04-12 17:41:00,78.0,44.0,28.39,SSE,157,7.5,12.8,30,0.00,,,0.00,Rainwise IP-100,2013-04-12 22:41:00,
2013-04-12 17:46:00,77.9,44.0,28.39,ENE,67,4.0,9.3,30,0.00,,,0.00,Rainwise IP-100,2013-04-12 22:46:00,
2013-04-12 17:51:00,77.8,45.0,28.39,SSE,157,6.3,15.4,31,0.00,,,0.00,Rainwise IP-100,2013-04-12 22:51:00,
2013-04-12 17:56:00,77.8,45.0,28.39,SSE,157,2.8,13.8,31,0.00,,,0.00,Rainwise IP-100,2013-04-12 22:56:00,
2013-04-12 18:01:00,78.0,45.0,28.39,ESE,112,4.7,14.7,31,0.00,,,0.00,Rainwise IP-100,2013-04-12 23:01:00,
2013-04-12 18:06:00,77.9,45.0,28.39,SE,135,7.5,13.1,31,0.00,,,0.00,Rainwise IP-100,2013-04-12 23:06:00,
2013-04-12 18:11:00,77.8,45.0,28.39,SSE,157,6.8,12.6,31,0.00,,,0.00,Rainwise IP-100,2013-04-12 23:11:00,
2013-04-12 18:16:00,77.6,45.0,28.39,ESE,112,9.6,13.8,31,0.00,,,0.00,Rainwise IP-100,2013-04-12 23:16:00,
2013-04-12 18:21:00,77.4,44.0,28.39,ESE,112,8.2,10.7,31,0.00,,,0.00,Rainwise IP-100,2013-04-12 23:21:00,
2013-04-12 18:26:00,77.4,44.0,28.39,SSE,157,4.0,10.5,31,0.00,,,0.00,Rainwise IP-100,2013-04-12 23:26:00,
2013-04-12 18:31:00,77.3,44.0,28.39,SSE,157,6.5,14.0,30,0.00,,,0.00,Rainwise IP-100,2013-04-12 23:31:00,
2013-04-12 18:36:00,77.0,43.0,28.39,SE,135,7.9,12.6,30,0.00,,,0.00,Rainwise IP-100,2013-04-12 23:36:00,
2013-04-12 18:41:00,76.9,43.0,28.39,South,180,4.7,12.4,30,0.00,,,0.00,Rainwise IP-100,2013-04-12 23:41:00,
2013-04-12 18:46:00,76.9,43.0,28.39,ESE,112,5.6,9.3,30,0.00,,,0.00,Rainwise IP-100,2013-04-12 23:46:00,
2013-04-12 18:51:00,76.7,43.0,28.39,SSE,157,4.4,14.2,30,0.00,,,0.00,Rainwise IP-100,2013-04-12 23:51:00,
2013-04-12 18:56:00,76.7,43.0,28.39,SSE,157,3.7,12.4,30,0.00,,,0.00,Rainwise IP-100,2013-04-12 23:56:00,
2013-04-12 19:01:00,76.6,44.0,28.39,South,180,6.8,10.0,31,0.00,,,0.00,Rainwise IP-100,2013-04-13 00:01:00,
2013-04-12 19:06:00,76.4,44.0,28.39,ESE,112,4.9,11.2,31,0.00,,,0.00,Rainwise IP-100,2013-04-13 00:06:00,
2013-04-12 19:11:00,76.1,43.0,28.39,ESE,112,7.5,9.8,31,0.00,,,0.00,Rainwise IP-100,2013-04-13 00:11:00,
2013-04-12 19:16:00,75.9,43.0,28.39,ESE,112,4.7,10.7,31,0.00,,,0.00,Rainwise IP-100,2013-04-13 00:16:00,
2013-04-12 19:21:00,75.5,43.0,28.39,ESE,112,11.4,11.4,32,0.00,,,0.00,Rainwise IP-100,2013-04-13 00:21:00,
2013-04-12 19:26:00,75.1,43.0,28.39,ESE,112,6.8,13.3,32,0.00,,,0.00,Rainwise IP-100,2013-04-13 00:26:00,
2013-04-12 19:31:00,74.8,43.0,28.39,SE,135,3.3,10.5,32,0.00,,,0.00,Rainwise IP-100,2013-04-13 00:31:00,
2013-04-12 19:36:00,74.4,43.0,28.39,SSE,157,4.4,12.1,32,0.00,,,0.00,Rainwise IP-100,2013-04-13 00:36:00,
2013-04-12 19:41:00,74.0,43.0,28.39,ESE,112,4.2,10.3,33,0.00,,,0.00,Rainwise IP-100,2013-04-13 00:41:00,
2013-04-12 19:46:00,73.7,43.0,28.40,ESE,112,4.7,11.0,33,0.00,,,0.00,Rainwise IP-100,2013-04-13 00:46:00,
2013-04-12 19:51:00,73.2,42.0,28.39,SSE,157,4.2,10.0,33,0.00,,,0.00,Rainwise IP-100,2013-04-13 00:51:00,
2013-04-12 19:56:00,72.8,42.0,28.40,ESE,112,3.7,7.0,33,0.00,,,0.00,Rainwise IP-100,2013-04-13 00:56:00,
2013-04-12 20:01:00,72.4,41.0,28.40,ESE,112,3.0,5.8,33,0.00,,,0.00,Rainwise IP-100,2013-04-13 01:01:00,
2013-04-12 20:06:00,71.9,42.0,28.40,ESE,112,2.8,9.6,34,0.00,,,0.00,Rainwise IP-100,2013-04-13 01:06:00,
2013-04-12 20:11:00,71.5,42.0,28.40,SE,135,5.1,7.0,35,0.00,,,0.00,Rainwise IP-100,2013-04-13 01:11:00,
2013-04-12 20:16:00,71.1,42.0,28.40,ESE,112,2.6,6.3,35,0.00,,,0.00,Rainwise IP-100,2013-04-13 01:16:00,
2013-04-12 20:21:00,70.8,42.0,28.40,SE,135,4.9,6.8,35,0.00,,,0.00,Rainwise IP-100,2013-04-13 01:21:00,
2013-04-12 20:26:00,70.6,41.0,28.40,East,90,3.5,8.2,35,0.00,,,0.00,Rainwise IP-100,2013-04-13 01:26:00,
2013-04-12 20:31:00,70.3,41.0,28.41,ESE,112,3.0,6.5,35,0.00,,,0.00,Rainwise IP-100,2013-04-13 01:31:00,
2013-04-12 20:36:00,70.0,42.0,28.41,ESE,112,2.1,4.7,36,0.00,,,0.00,Rainwise IP-100,2013-04-13 01:36:00,
2013-04-12 20:41:00,69.6,41.0,28.41,ESE,112,1.6,5.4,36,0.00,,,0.00,Rainwise IP-100,2013-04-13 01:41:00,
2013-04-12 20:46:00,69.3,42.0,28.41,ESE,112,1.6,5.6,37,0.00,,,0.00,Rainwise IP-100,2013-04-13 01:46:00,
2013-04-12 20:51:00,69.0,41.0,28.42,ESE,112,3.7,4.4,37,0.00,,,0.00,Rainwise IP-100,2013-04-13 01:51:00,
2013-04-12 20:56:00,68.8,41.0,28.42,ESE,112,6.1,8.2,37,0.00,,,0.00,Rainwise IP-100,2013-04-13 01:56:00,
2013-04-12 21:01:00,68.8,41.0,28.42,ENE,67,3.7,8.6,37,0.00,,,0.00,Rainwise IP-100,2013-04-13 02:01:00,
2013-04-12 21:06:00,69.0,41.0,28.42,ESE,112,2.6,11.7,37,0.00,,,0.00,Rainwise IP-100,2013-04-13 02:06:00,
2013-04-12 21:11:00,69.0,41.0,28.42,SE,135,7.0,10.0,37,0.00,,,0.00,Rainwise IP-100,2013-04-13 02:11:00,
2013-04-12 21:16:00,68.7,41.0,28.43,ESE,112,1.4,10.5,37,0.00,,,0.00,Rainwise IP-100,2013-04-13 02:16:00,
2013-04-12 21:22:00,68.5,41.0,28.43,ESE,112,2.3,8.9,37,0.00,,,0.00,Rainwise IP-100,2013-04-13 02:22:00,
2013-04-12 21:27:00,68.2,41.0,28.43,East,90,4.9,8.4,37,0.00,,,0.00,Rainwise IP-100,2013-04-13 02:27:00,
2013-04-12 21:32:00,67.8,41.0,28.43,ESE,112,4.9,8.9,38,0.00,,,0.00,Rainwise IP-100,2013-04-13 02:32:00,
2013-04-12 21:37:00,67.5,42.0,28.43,East,90,5.6,8.9,39,0.00,,,0.00,Rainwise IP-100,2013-04-13 02:37:00,
2013-04-12 21:42:00,67.3,42.0,28.44,East,90,4.2,13.1,39,0.00,,,0.00,Rainwise IP-100,2013-04-13 02:42:00,
2013-04-12 21:47:00,67.2,41.0,28.44,ESE,112,2.6,9.6,39,0.00,,,0.00,Rainwise IP-100,2013-04-13 02:47:00,
2013-04-12 21:52:00,67.1,41.0,28.44,SE,135,5.4,9.8,39,0.00,,,0.00,Rainwise IP-100,2013-04-13 02:52:00,
2013-04-12 21:57:00,66.8,41.0,28.44,ENE,67,4.9,10.0,40,0.00,,,0.00,Rainwise IP-100,2013-04-13 02:57:00,
2013-04-12 22:02:00,66.6,41.0,28.45,ESE,112,3.5,8.9,40,0.00,,,0.00,Rainwise IP-100,2013-04-13 03:02:00,
2013-04-12 22:07:00,66.3,41.0,28.45,East,90,4.9,7.0,40,0.00,,,0.00,Rainwise IP-100,2013-04-13 03:07:00,
2013-04-12 22:12:00,66.1,41.0,28.45,ESE,112,6.3,10.7,41,0.00,,,0.00,Rainwise IP-100,2013-04-13 03:12:00,
2013-04-12 22:17:00,66.0,41.0,28.45,ESE,112,4.4,8.4,41,0.00,,,0.00,Rainwise IP-100,2013-04-13 03:17:00,
2013-04-12 22:22:00,65.9,41.0,28.45,ESE,112,4.9,9.1,41,0.00,,,0.00,Rainwise IP-100,2013-04-13 03:22:00,
2013-04-12 22:27:00,65.8,41.0,28.45,ESE,112,3.0,8.6,41,0.00,,,0.00,Rainwise IP-100,2013-04-13 03:27:00,
2013-04-12 22:32:00,65.6,41.0,28.46,SE,135,6.5,12.1,41,0.00,,,0.00,Rainwise IP-100,2013-04-13 03:32:00,
2013-04-12 22:37:00,65.4,41.0,28.46,ESE,112,6.1,8.9,42,0.00,,,0.00,Rainwise IP-100,2013-04-13 03:37:00,
2013-04-12 22:42:00,65.3,41.0,28.46,ESE,112,7.0,10.0,42,0.00,,,0.00,Rainwise IP-100,2013-04-13 03:42:00,
2013-04-12 22:47:00,65.1,42.0,28.47,SE,135,8.4,8.6,43,0.00,,,0.00,Rainwise IP-100,2013-04-13 03:47:00,
2013-04-12 22:52:00,64.9,42.0,28.47,ESE,112,8.2,10.3,43,0.00,,,0.00,Rainwise IP-100,2013-04-13 03:52:00,
2013-04-12 22:57:00,64.7,41.0,28.47,ESE,112,8.6,8.9,43,0.00,,,0.00,Rainwise IP-100,2013-04-13 03:57:00,
2013-04-12 23:00:00,64.5,41.0,28.47,ESE,112,8.4,9.1,43,0.00,,,0.00,Rainwise IP-100,2013-04-13 04:00:00,
2013-04-12 23:01:00,64.5,42.0,28.47,East,90,4.7,9.1,44,0.00,,,0.00,Rainwise IP-100,2013-04-13 04:01:00,
2013-04-12 23:06:00,64.2,41.0,28.47,ESE,112,2.8,8.2,44,0.00,,,0.00,Rainwise IP-100,2013-04-13 04:06:00,
2013-04-12 23:11:00,64.0,41.0,28.47,East,90,4.4,10.3,44,0.00,,,0.00,Rainwise IP-100,2013-04-13 04:11:00,
2013-04-12 23:16:00,63.8,42.0,28.47,East,90,3.0,10.3,45,0.00,,,0.00,Rainwise IP-100,2013-04-13 04:16:00,
2013-04-12 23:21:00,63.6,42.0,28.47,ESE,112,3.5,7.2,45,0.00,,,0.00,Rainwise IP-100,2013-04-13 04:21:00,
2013-04-12 23:26:00,63.4,42.0,28.47,ESE,112,7.0,8.9,46,0.00,,,0.00,Rainwise IP-100,2013-04-13 04:26:00,
2013-04-12 23:31:00,63.2,42.0,28.47,East,90,5.1,8.9,46,0.00,,,0.00,Rainwise IP-100,2013-04-13 04:31:00,
2013-04-12 23:36:00,62.9,42.0,28.48,ESE,112,3.5,6.8,47,0.00,,,0.00,Rainwise IP-100,2013-04-13 04:36:00,
2013-04-12 23:41:00,62.6,42.0,28.48,ESE,112,3.7,7.5,47,0.00,,,0.00,Rainwise IP-100,2013-04-13 04:41:00,
2013-04-12 23:46:00,62.3,42.0,28.47,East,90,4.0,5.8,48,0.00,,,0.00,Rainwise IP-100,2013-04-13 04:46:00,
2013-04-12 23:51:00,61.9,42.0,28.47,ESE,112,3.5,6.3,49,0.00,,,0.00,Rainwise IP-100,2013-04-13 04:51:00,
2013-04-12 23:56:00,61.7,42.0,28.48,ESE,112,5.1,7.2,49,0.00,,,0.00,Rainwise IP-100,2013-04-13 04:56:00,